Regional Weather Roundup
Issued by NWS Grand Forks, ND

Home | Current Version | Previous Version | Graphics & Text | Print | Product List | Glossary On
Versions: 1 2 3 4 5 6 7 8 9 10 11 12 13 14 15 16 17 18 19 20 21 22 23 24 25 26 27 28 29 30 31 32 33 34 35 36 37 38 39 40 41 42 43 44 45 46 47 48 49 50
000
ASUS43 KFGF 191610
RWRFGF
PRAIRIE TO PINES  WEATHER ROUNDUP
NATIONAL WEATHER SERVICE EASTERN NORTH DAKOTA/GRAND FORKS ND
1000 AM CST FRI DEC 19 2014

 **SATELLITE DATA USED TO AUGMENT SKY COVER AT AUTOMATED STATIONS**
 *****  WEATHER ACROSS EASTERN NORTH DAKOTA  *****

CITY           SKY/WX    TMP DP  RH WIND       PRES   REMARKS
GRAND FORKS    FRZ DRZL  25  24  96 S12       30.07S VSB 3/4 WCI  14
GRAND FRKS AFB CLOUDY    25  25 100 S9        30.06S FOG     WCI  15
DEVILS LAKE    CLOUDY    27  19  74 S6        29.96S WCI  20
FARGO          CLOUDY    27  24  89 S13       30.08S FOG     WCI  16
WAHPETON ARPT  CLOUDY    27  23  86 SE7       30.11S WCI  19
$$

 ***** WEATHER ACROSS CENTRAL AND WESTERN NORTH DAKOTA  *****

CITY           SKY/WX    TMP DP  RH WIND       PRES   REMARKS
BISMARCK       PTSUNNY   23  21  92 SE3       29.96S
MINOT          CLOUDY    28  26  92 W3        29.93S FOG
JAMESTOWN      CLOUDY    27  25  93 S14       29.98S FOG     WCI  15
MINOT AFB      FRZ DRZL  27  27 100 NW2       29.94R FOG
GARRISON         N/A     21  19  92 CALM      29.93S
WILLISTON      CLOUDY    21  19  92 CALM      29.94S FOG
DICKINSON      MOSUNNY   31  24  75 W8        29.90S WCI  23
HETTINGER      PTSUNNY   29  24  82 NW7       29.95R WCI  22
$$

 *****  OTHER AIRPORT OBSERVATIONS IN OUR AREA  *****

CITY           SKY/WX    TMP DP  RH WIND       PRES   REMARKS
WALHALLA         N/A     23  23 100 SE7       30.04S FOG     WCI  15
GRAFTON AIRPOR NOT AVBL
VALLEY CITY AR CLOUDY    27  27 100 S12       30.01S FOG     WCI  16
CANDO          FOG       27  27 100 S6        29.97S VSB 1/2 WCI  20
CAVALIER APRT  CLOUDY    23  23 100 S6        30.05S FOG     WCI  16
GWINNER        CLOUDY    30  30 100 MISG      30.06S
SHEYENNE NWR     N/A     27  25  93 S8        29.95S WCI  19
ROLLA          FOG       25  25 100 CALM      29.95S VSB 1
 ***** THE ABOVE OBSERVATIONS ARE NON NWS ARE NOT QUALITY
       CONTROLLED AND MAY MIS-REPORT RAIN FOR SNOW...
$$

  *****  WEATHER ACROSS NORTHERN MINNESOTA  *****

CITY           SKY/WX    TMP DP  RH WIND       PRES   REMARKS
FLAG ISLAND    CLOUDY    21  18  86 S14       30.11F WCI   8
WARROAD        CLOUDY    21  18  86 SE10      30.11S WCI  10
ROSEAU         CLOUDY    25  18  74 S12       30.10S WCI  14
HALLOCK        CLOUDY    25  23  93 S12       30.07S FOG     WCI  14
THF RVR FALLS  CLOUDY    23  21  93 S10       30.09S WCI  12
BAUDETTE       FLURRIES  21  17  84 S8        30.12S WCI  11
WASKISH        LGT SNOW  21  19  93 SE3       30.13F
CROOKSTON      CLOUDY    25  25 100 S13       30.10S FOG     WCI  13
STEPHEN NDAWN    N/A     25  23  93 S12         N/A  WCI  14
GREENBUSH NDAW   N/A     23  21  93 SE12        N/A  WCI  12
$$
  *****  WEATHER ACROSS CENTRAL AND WEST MINNESOTA  *****

CITY           SKY/WX    TMP DP  RH WIND       PRES   REMARKS
FOSSTON        CLOUDY    21  19  93 SE9       30.10S FOG     WCI  11
BEMIDJI        CLOUDY    20  18  91 SE8       30.12S FOG     WCI  10
PARK RAPIDS    FOG       21  19  92 SE12      30.12S VSB 1   WCI   9
ELBOW LAKE     CLOUDY    25  24  96 SE14      30.11F FOG     WCI  13
WADENA         FOG       21  19  93 NW8       30.13S VSB 1   WCI  12
DETROIT LAKES  FOG       25  25 100 S10       30.10F VSB 3/4 WCI  15
MOORHEAD       CLOUDY    27  27 100 SE13      30.10S FOG     WCI  16
FERGUS FALLS   CLOUDY    25  25 100 SE12      30.14S FOG     WCI  14
MORRIS MN      MOSUNNY   27  27 100 S13       30.12S FOG     WCI  16
STAPLES        CLOUDY    19  19 100 SE8       30.15S FOG     WCI   9
$$
  *****  WEATHER ELSEWHERE ACROSS MINNESOTA  *****

CITY           SKY/WX    TMP DP  RH WIND       PRES   REMARKS
DULUTH         CLOUDY    22  19  89 S7        30.21S FOG     WCI  13
INTRNTL FALLS  CLOUDY    22  17  81 S8        30.16S WCI  12
ELY            CLOUDY    19  18  93 S7        30.20S WCI  10
CLOQUET        SNOW      21  19  93 SE3       30.22S VSB 1/2
WHEATON        CLOUDY    27  25  93 SE9       30.13R FOG     WCI  17
BRAINERD       CLOUDY    20  18  92 SE8       30.18F FOG     WCI  10
HIBBING        CLOUDY    21  17  84 S5        30.20S WCI  15
ALEXANDRIA     CLOUDY    25  23  92 SE10      30.13S FOG     WCI  15
SAINT CLOUD    CLOUDY    23  19  85 SE9       30.20F FOG     WCI  13
MINNEAPOLIS    CLOUDY    24  19  81 SE6       30.25S WCI  17
$$

  *****  WEATHER ACROSS SOUTH DAKOTA  *****

CITY           SKY/WX    TMP DP  RH WIND       PRES   REMARKS
SIOUX FALLS    CLOUDY    29  27  92 S15       30.15S WCI  18
BROOKINGS      NOT AVBL
WATERTOWN      CLOUDY    26  25  96 S18       30.07S FOG     WCI  13
HURON          CLOUDY    28  26  92 S14       30.09S FOG     WCI  17
SISSETON         N/A     29  27  92 SW14      30.07F WCI  18
ABERDEEN       CLOUDY    28  26  92 S15       30.06S FOG     WCI  16
MITCHELL       CLOUDY    29  27  92 S10       30.12S FOG     WCI  20
PIERRE         CLOUDY    20  17  88 CALM      30.02S FOG
MOBRIDGE       PTSUNNY   23  20  88 S8        29.97R FOG     WCI  14
RAPID CITY     SUNNY     34  23  64 CALM      29.98R
$$

  *****  SOME WEATHER IN NEARBY STATES *****

CITY           SKY/WX    TMP DP  RH WIND       PRES   REMARKS
GLASGOW MT     PTCLDY    21  18  88 N5        29.91S FOG     WCI  15
GREAT FALLS MT MOCLDY    36  26  67 S13       29.85F
CHEYENNE WY    SUNNY     32  14  47 W20G29    30.05S WCI  20
SCOTTSBLUFF NE SUNNY      8   5  87 CALM      30.06S
OMAHA NE       CLOUDY    32  29  88 S9        30.25R FOG     WCI  24
DES MOINES IA  CLOUDY    30  26  85 SE7       30.29R FOG     WCI  23
DAVENPORT IA   CLOUDY    25  19  78 SE6       30.34R WCI  18
CHICAGO IL     CLOUDY    29  20  69 NW6       30.32R WCI  23
EAU CLAIRE WI  CLOUDY    25  18  74 S6        30.28S WCI  18
LA CROSSE WI   CLOUDY    27  18  69 SE5       30.31S WCI  22
$$

  *****  SOME NATIONAL WEATHER *****

CITY           SKY/WX    TMP DP  RH WIND       PRES   REMARKS
LA GUARDIA NY  PTSUNNY   36  22  56 NW17G26   30.06F
RALEIGH NC     MOSUNNY   47  22  37 N8        30.18F
ATLANTA GA     PTSUNNY   49  34  56 NW6       30.16S
NEW ORLEANS LA CLOUDY    56  52  86 NE14      30.13F
OKLAHOMA CITY  DRIZZLE   40  36  86 NE5       30.24R FOG
ALBUQUERQUE NM MOSUNNY   37  25  61 NW9       30.24R
SALT LAKE CITY PTSUNNY   35  28  75 SE13      30.19S
LOS ANGELES CA MOSUNNY   53  44  71 VRB5      30.22F
BOISE ID       LGT RAIN  43  33  68 SE16      30.02F
SEATTLE WA     CLOUDY    47  40  76 S10       29.88R
$$

*** WEATHER ACROSS MANITOBA...SASKATCHEWAN AND ONTARIO ***
                ***ONTARIO***

CITY           SKY/WX    TMP DP  RH WIND       PRES   REMARKS
GERALDTON      SUNNY     -2  -6  84 E2        30.29F
THUNDER BAY    NOT AVBL
SIOUX LOOKOUT  NOT AVBL
TORONTO        NOT AVBL
BIG TROUT LK   CLEAR      0  -4  85 S6        30.17S WCI -12
PICKLE LAKE    CLOUDY    16  12  86 S5        30.19S WCI   9
DRYDEN         CLOUDY    21  19  93 S10       30.14F WCI  10
KENORA         NOT AVBL
$$
                *** MANITOBA***

CITY           SKY/WX    TMP DP  RH WIND       PRES   REMARKS
BRANDON        NOT AVBL
DAUPHIN        CLOUDY    21  18  86 S3        30.01S
ISLAND LAKE    FLURRIES   9   5  85 SE3       30.11S
PILOT MOUND      N/A     23  23 100 SE1         N/A
THE PAS        NOT AVBL
THOMPSON       NOT AVBL
WINNIPEG       NOT AVBL
LYNN LAKE      CLOUDY    16  16 100 SW5       29.91R WCI   9
$$
                ***SASKATCHEWAN***

CITY           SKY/WX    TMP DP  RH WIND       PRES   REMARKS
ESTEVAN        FOG       23  21  93 W6        29.93R VSB 1/4 WCI  16
KINDERSLEY     NOT AVBL
LLOYDMINSTER   NOT AVBL
PRINCE ALBERT  NOT AVBL
REGINA         NOT AVBL
YORKTON        CLOUDY    23  21  93 VRB2      29.93S FOG
N. BATTLEFORD  FOG       14  12  92 SE5       29.93S VSB 1/8 WCI   6
LA RONGE       NOT AVBL
SASKATOON      NOT AVBL
SWIFT CURRENT    N/A     19  18  93 S6        29.85S WCI  11
$$
NOTE: THESE ARE AUTOMATED STATIONS WITH LIMITED QUALITY CONTROL
      "FAIR" INDICATES FEW OR NO CLOUDS BELOW 12,000 FEET WITH NO
      SIGNIFICANT WEATHER AND/OR OBSTRUCTIONS TO VISIBILITY.
      SKY/WX - SKY CONDITION AND SIGNIFICANT WEATHER.
      TMP - AIR TEMPERATURE.    DP   - DEWPOINT TEMPERATURE.
      RH  - RELATIVE HUMIDITY.  PRES - PRESSURE.
      HX  - HEAT INDEX.         WCI  - WIND CHILL INDEX.
$


USA.gov is the U.S. government's official web portal to all federal, state and local government web resources and services.